FW3919 Weather Reports


time (UTC)temp
C
wind
direction
speed
KPH
gust
KPH
rain 1hr
cm
rain 24hr
cm
rain mn
cm
humidity
%
barometer
mb
20260506221617 5 344 0.0 4.8 0.00 1.80 1.63 96 1008.2
20260506220101 5 345 1.6 6.4 0.00 1.80 1.63 96 1008.3
20260506213103 6 38 1.6 6.4 0.03 1.80 1.63 96 1008.2
20260506211558 6 19 1.6 6.4 0.05 1.80 1.63 96 1007.8
20260506210100 5 342 3.2 8.0 0.08 1.98 1.63 96 1008.0
20260506203120 6 319 4.8 8.0 0.10 1.96 1.60 96 1008.0
20260506201557 6 337 1.6 12.9 0.08 1.93 1.57 96 1008.0
20260506200101 6 319 6.4 9.7 0.05 1.93 1.55 95 1007.9
20260506193105 6 355 1.6 4.8 0.03 1.88 1.50 96 1007.7
20260506191555 6 31 4.8 8.0 0.03 1.88 1.50 96 1007.6
20260506190055 6 30 3.2 9.7 0.03 1.96 1.50 96 1007.7
20260506183058 5 29 1.6 6.4 0.03 1.93 1.45 96 1007.9
20260506181555 6 5 4.8 9.7 0.05 1.93 1.45 96 1008.1
20260506180051 6 26 4.8 9.7 0.08 1.93 1.45 96 1008.2
20260506173056 5 16 1.6 9.7 0.13 1.91 1.42 96 1008.5
20260506171550 5 355 3.2 12.9 0.15 1.88 1.42 96 1008.5
20260506170053 5 24 4.8 14.5 0.20 1.85 1.40 96 1008.9
20260506163056 5 5 1.6 9.7 0.28 1.78 1.32 96 1008.7
20260506161547 5 15 4.8 9.7 0.33 1.73 1.27 96 1008.8
20260506160055 5 355 1.6 9.7 0.38 1.68 1.22 96 1008.7
20260506153043 5 334 1.6 6.4 0.28 1.50 1.04 96 1008.7
20260506151542 5 360 3.2 8.0 0.23 1.42 0.97 96 1008.8
20260506150049 5 338 3.2 12.9 0.18 1.32 0.86 96 1008.6
20260506143041 5 28 1.6 9.7 0.13 1.22 0.76 96 1008.6
20260506141543 5 331 1.6 9.7 0.10 1.19 0.71 95 1008.7
20260506140137 5 304 3.2 8.0 0.10 1.17 0.71 95 1008.7
20260506133042 5 19 4.8 16.1 0.08 1.09 0.64 95 1008.8
20260506131534 5 25 3.2 4.8 0.10 1.09 0.64 95 1009.1
20260506130034 5 346 1.6 9.7 0.13 1.07 0.61 95 1009.1
20260506123032 6 19 3.2 8.0 0.20 1.02 0.56 95 1009.0
20260506121531 6 304 1.6 14.5 0.20 0.99 0.53 94 1009.4
20260506120048 6 333 4.8 8.0 0.15 0.94 0.48 94 1009.7
20260506113024 6 350 0.0 4.8 0.08 0.84 0.38 95 1009.6
20260506111523 6 340 0.0 3.2 0.03 0.79 0.33 95 1009.0
20260506110025 6 340 0.0 4.8 0.03 0.79 0.33 95 1009.1
20260506103036 7 278 0.0 3.2 0.05 0.76 0.30 95 1008.8
20260506101521 7 277 0.0 1.6 0.10 0.76 0.30 96 1009.1
20260506100019 7 46 0.0 3.2 0.10 0.76 0.30 95 1008.9
20260506093021 7 13 0.0 4.8 0.10 0.71 0.28 95 1009.2
20260506091519 7 35 3.2 6.4 0.05 0.69 0.23 94 1009.1
20260506090013 7 12 0.0 8.0 0.03 0.66 0.20 94 1009.3
20260506083013 8 337 0.0 6.4 0.03 0.66 0.20 94 1009.3
20260506081509 8 17 0.0 3.2 0.00 0.64 0.18 94 1009.3
20260506073006 8 316 0.0 3.2 0.03 0.64 0.18 94 1009.3
20260506071503 8 315 0.0 3.2 0.03 0.64 0.18 95 1009.1
20260506061556 9 300 1.6 6.4 0.00 0.61 0.15 93 1009.1
20260506043049 10 306 0.0 4.8 0.18 0.53 0.08 95 1008.6
20260506041556 10 307 0.0 1.6 0.13 0.48 0.03 95 1008.5
20260506040043 10 306 0.0 3.2 0.15 0.46 0.46 94 1008.6
20260506033040 11 305 0.0 3.2 0.05 0.36 0.36 89 1008.2
20260506031542 12 261 0.0 6.4 0.05 0.36 0.36 85 1008.1
20260506030033 13 298 3.2 8.0 0.00 0.30 0.30 78 1007.9
20260506023049 13 300 6.4 16.1 0.03 0.30 0.30 74 1007.3
20260506021550 14 255 3.2 12.9 0.03 0.30 0.30 77 1007.4
20260506020028 14 348 3.2 17.7 0.03 0.30 0.30 80 1007.3
20260506013031 16 234 1.6 6.4 0.00 0.28 0.28 85 1006.5
20260506011523 16 257 0.0 4.8 0.00 0.28 0.28 84 1005.9
20260506010020 16 197 3.2 8.0 0.00 0.28 0.28 83 1005.6
20260506003016 17 165 3.2 9.7 0.00 0.28 0.28 78 1005.0
20260506001514 17 168 0.0 11.3 0.00 0.28 0.28 79 1004.7
20260506000013 17 187 4.8 11.3 0.00 0.28 0.28 76 1004.8
20260505233011 17 177 4.8 16.1 0.00 0.28 0.28 77 1004.8
20260505231514 17 229 3.2 11.3 0.00 0.28 0.28 80 1004.7
20260505230020 17 251 3.2 9.7 0.00 0.28 0.28 80 1004.2
20260505223009 17 249 4.8 12.9 0.00 0.28 0.28 76 1004.1